Weather History for Hurlburt Field, FL

Change the Weather History Date:

Tuesday, July 23, 2013

  Actual Average Record
Temperature  
Mean Temperature 80 °F -  
Max Temperature 88 °F 87 °F 95 °F (1999)
Min Temperature 71 °F 73 °F 46 °F (1999)
Cooling Degree Days 14    
Growing Degree Days 30 (Base 50)    
Moisture  
Dew Point 73 °F    
Average Humidity 79    
Maximum Humidity 89    
Minimum Humidity 62    
Precipitation  
Precipitation 5.42 in - - ()
Sea Level Pressure  
Sea Level Pressure 30.00 in    
Wind  
Wind Speed 9 mph (West)    
Max Wind Speed 31 mph    
Max Gust Speed 41 mph    
Visibility 10 miles    
Events Rain , Thunderstorm    
Averages and records for this station are not official NWS values.
T = Trace of Precipitation, MM = Missing Value Source: NWS Daily Summary

Daily Weather History Graph

Daily Weather History Graph

Search for Another Location

Airport:

Trip Planner

Search our weather history database for the weather conditions in past years. The results will help you decide how hot, cold, wet, or windy it might be!

Date:

Astronomy

Jul. 23, 2013 Rise Set
Actual Time 5:59 AM CDT 7:46 PM CDT
Civil Twilight 5:33 AM CDT 8:13 PM CDT
Nautical Twilight 5:01 AM CDT 8:45 PM CDT
Astronomical Twilight 4:27 AM CDT 9:18 PM CDT
Moon 8:25 PM CDT (7/23) 6:59 AM CDT (7/23)
Length of Visible Light 14h 39m
Length of Day
13h 46m
Full, 99% of the Moon is Illuminated
Jul 23
Full
Jul 29
Last Quarter
Aug 6
New
Aug 14
First Quarter
Aug 20
Full

Hourly Weather History & Observations

Time (CDT) Temp. Heat Index Dew Point Humidity Pressure Visibility Wind Dir Wind Speed Gust Speed Precip Events Conditions
12:58 AM 76.3 °F - 72.3 °F 87% 30.02 in 10.0 mi West 5.8 mph - N/A   Clear
1:58 AM 76.3 °F - 72.0 °F 86% 30.01 in 10.0 mi West 3.5 mph - 0.01 in   Clear
2:58 AM 78.4 °F - 73.8 °F 85% 30.01 in 10.0 mi WSW 8.1 mph - N/A   Scattered Clouds
3:03 AM 78.8 °F - 73.4 °F 83% 30.00 in 10.0 mi WSW 8.1 mph - N/A   Mostly Cloudy
3:18 AM 78.8 °F - 73.4 °F 83% 30.00 in 10.0 mi WSW 8.1 mph - N/A   Mostly Cloudy
3:58 AM 79.7 °F - 75.0 °F 86% 30.01 in 10.0 mi West 8.1 mph - N/A   Overcast
4:38 AM 80.6 °F 86.2 °F 75.2 °F 84% 30.01 in 10.0 mi West 10.4 mph - N/A   Scattered Clouds
4:43 AM 80.6 °F 86.2 °F 75.2 °F 84% 30.00 in 10.0 mi West 8.1 mph - N/A   Mostly Cloudy
4:58 AM 80.6 °F 86.6 °F 76.1 °F 86% 30.02 in 10.0 mi West 6.9 mph - N/A   Mostly Cloudy
5:28 AM 80.6 °F 87.1 °F 77.0 °F 89% 30.02 in 10.0 mi West 5.8 mph - N/A   Mostly Cloudy
5:33 AM 80.6 °F 87.1 °F 77.0 °F 89% 30.02 in 10.0 mi WNW 5.8 mph - N/A   Mostly Cloudy
5:48 AM 80.6 °F 87.1 °F 77.0 °F 89% 30.02 in 10.0 mi West 8.1 mph - N/A   Scattered Clouds
5:58 AM 80.4 °F 86.3 °F 76.3 °F 87% 30.03 in 10.0 mi West 8.1 mph - N/A   Partly Cloudy
6:58 AM 80.6 °F 86.6 °F 76.1 °F 86% 30.03 in 10.0 mi WNW 5.8 mph - N/A   Clear
7:27 AM 82.4 °F 90.9 °F 77.0 °F 84% 30.03 in 9.0 mi WNW 5.8 mph - N/A Rain Light Rain
7:36 AM 82.4 °F 90.9 °F 77.0 °F 84% 30.03 in 10.0 mi West 6.9 mph - N/A   Clear
7:58 AM 82.2 °F 89.9 °F 76.3 °F 82% 30.04 in 10.0 mi WNW 8.1 mph - 0.13 in   Partly Cloudy
8:58 AM 83.8 °F 91.4 °F 74.8 °F 74% 30.04 in 10.0 mi NW 12.7 mph 19.6 mph N/A   Partly Cloudy
9:58 AM 85.8 °F 93.4 °F 73.9 °F 67% 30.05 in 10.0 mi WNW 13.8 mph 19.6 mph N/A   Scattered Clouds
10:03 AM 86.0 °F 93.4 °F 73.4 °F 66% 30.03 in 10.0 mi WNW 12.7 mph 19.6 mph N/A   Mostly Cloudy
10:13 AM 86.0 °F 95.1 °F 75.2 °F 70% 30.03 in 10.0 mi WNW 11.5 mph - N/A   Scattered Clouds
10:53 AM 87.8 °F 95.6 °F 73.4 °F 62% 30.03 in 10.0 mi NW 12.7 mph - N/A   Mostly Cloudy
10:58 AM 87.1 °F 95.4 °F 73.9 °F 65% 30.05 in 10.0 mi WNW 12.7 mph - N/A   Mostly Cloudy
11:23 AM 86.0 °F 93.4 °F 73.4 °F 66% 30.03 in 10.0 mi WNW 12.7 mph - N/A   Scattered Clouds
11:58 AM 88.0 °F 96.0 °F 73.4 °F 62% 30.03 in 10.0 mi West 8.1 mph - N/A   Mostly Cloudy
12:13 PM 87.8 °F 95.6 °F 73.4 °F 62% 30.01 in 10.0 mi WSW 11.5 mph - N/A   Mostly Cloudy
12:28 PM 87.8 °F 97.6 °F 75.2 °F 66% 30.01 in 10.0 mi WSW 12.7 mph - N/A   Mostly Cloudy
12:58 PM 87.6 °F 98.2 °F 75.9 °F 68% 30.01 in 10.0 mi SW 15.0 mph - N/A   Scattered Clouds
1:58 PM 87.6 °F 99.2 °F 76.6 °F 70% 29.99 in 10.0 mi WSW 13.8 mph 21.9 mph N/A   Partly Cloudy
2:58 PM 86.9 °F 97.8 °F 76.3 °F 71% 29.97 in 10.0 mi WSW 16.1 mph 26.5 mph N/A   Clear
3:58 PM 86.5 °F 95.9 °F 75.2 °F 69% 29.96 in 10.0 mi West 20.7 mph 27.6 mph N/A   Clear
4:58 PM 86.0 °F 95.5 °F 75.7 °F 71% 29.95 in 10.0 mi WSW 18.4 mph 26.5 mph N/A   Clear
5:58 PM 84.9 °F 94.1 °F 75.9 °F 74% 29.95 in 10.0 mi West 16.1 mph 25.3 mph N/A   Partly Cloudy
6:20 PM 84.2 °F 92.3 °F 75.2 °F 74% 29.97 in 10.0 mi NW 17.3 mph 20.7 mph N/A Thunderstorm Partly Cloudy
6:21 PM 84.2 °F 92.3 °F 75.2 °F 74% 29.98 in 10.0 mi NNW 28.8 mph 41.4 mph N/A Thunderstorm Squalls
6:23 PM 84.2 °F 90.9 °F 73.4 °F 70% 30.00 in 10.0 mi NNW 31.1 mph 41.4 mph N/A Rain , Thunderstorm Light Rain
6:24 PM 84.2 °F 90.9 °F 73.4 °F 70% 29.99 in 9.0 mi North 31.1 mph 41.4 mph N/A Rain , Thunderstorm Light Rain
6:30 PM 80.6 °F 83.9 °F 69.8 °F 70% 29.99 in 0.5 mi North 24.2 mph 41.4 mph N/A Rain , Thunderstorm Heavy Thunderstorms and Rain
6:57 PM 71.6 °F - 68.0 °F 88% 29.99 in 3.0 mi NNE 9.2 mph - 2.59 in Rain , Thunderstorm Light Thunderstorms and Rain
7:32 PM 71.6 °F - 68.0 °F 88% 29.96 in 6.0 mi SSE 9.2 mph - N/A Rain , Thunderstorm Light Rain
7:43 PM 71.6 °F - 68.0 °F 88% 29.96 in 10.0 mi ESE 3.5 mph - N/A   Mostly Cloudy
7:51 PM 71.6 °F - 68.0 °F 88% 29.96 in 10.0 mi SSE 4.6 mph - N/A Rain Light Rain
7:55 PM 71.6 °F - 68.0 °F 88% 29.97 in 10.0 mi South 4.6 mph - N/A   Clear
7:58 PM 72.5 °F - 68.2 °F 86% 29.98 in 10.0 mi South 3.5 mph - 2.69 in   Clear
8:33 PM 73.4 °F - 68.0 °F 83% 29.95 in 10.0 mi Calm Calm - N/A Rain Light Rain
8:34 PM 73.4 °F - 68.0 °F 83% 29.95 in 10.0 mi Calm Calm - N/A   Partly Cloudy
8:58 PM 74.1 °F - 68.2 °F 82% 29.97 in 10.0 mi Calm Calm - 0.00 in   Clear
9:36 PM 73.4 °F - 69.8 °F 88% 29.96 in 10.0 mi ENE 2.3 mph - N/A   Light Drizzle
9:46 PM 73.4 °F - 69.8 °F 88% 29.96 in 10.0 mi ENE 2.3 mph - N/A   Clear
9:58 PM 73.9 °F - 68.7 °F 84% 29.97 in 10.0 mi ESE 2.3 mph - 0.00 in   Clear
10:17 PM 73.4 °F - 69.8 °F 88% 29.96 in 10.0 mi ESE 3.5 mph - N/A   Light Drizzle
10:32 PM 75.2 °F - 69.8 °F 83% 29.96 in 10.0 mi East 2.3 mph - N/A   Clear
10:58 PM 75.0 °F - 69.8 °F 84% 29.96 in 10.0 mi South 1.2 mph - 0.00 in   Clear
11:53 PM 77.0 °F - 69.8 °F 78% 29.95 in 10.0 mi South 5.8 mph - N/A   Mostly Cloudy
11:58 PM 77.4 °F - 70.7 °F 80% 29.96 in 10.0 mi South 6.9 mph - N/A   Mostly Cloudy